Daviess Cnty AP, Washington,, IN

8:12 AM EST on December 13, 2019 (GMT -0500)
Daviess County

Weather History for KDCY - July, 2019

Change the Weather History Date:

Monday, July 22, 2019

  Actual Average (KLWV) Record (KLWV)
Temperature  
Mean Temperature 70 °F 78 °F  
Max Temperature 75 °F 88 °F 98 °F (2017)
Min Temperature 64 °F 68 °F 55 °F (2000)
Degree Days  
Heating Degree Days 0 0  
Month to date heating degree days 0  
Since 1 June heating degree days 7  
Since 1 July heating degree days 0  
Cooling Degree Days 5 13  
Month to date cooling degree days 286  
Year to date cooling degree days 715  
Since 1 June cooling degree days 576  
Growing Degree Days 20 (Base 50)    
Moisture  
Dew Point 67 °F    
Average Humidity 82    
Maximum Humidity 99    
Minimum Humidity 68    
Precipitation  
Precipitation 0.07 in 0.17 in 1.59 in (1976)
Month to date precipitation 3.31  
Year to date precipitation 24.85  
Sea Level Pressure  
Sea Level Pressure 29.96 in    
Wind  
Wind Speed 4 mph (North)    
Max Wind Speed 12 mph    
Max Gust Speed 18 mph    
Visibility 9 miles    
Events Rain    
T = Trace of Precipitation, MM = Missing Value Source: NWS Daily Summary

Daily Weather History Graph

Daily Weather History Graph

Search for Another Location

Airport or City:

Astronomy

Jul. 22, 2019 Rise Set
Actual Time 6:41 AM EDT 9:08 PM EDT
Civil Twilight 6:10 AM EDT 9:38 PM EDT
Nautical Twilight 5:33 AM EDT 10:16 PM EDT
Astronomical Twilight 4:51 AM EDT 10:57 PM EDT
Moon 12:06 AM EDT (7/22) 11:54 AM EDT (7/22)
Length of Visible Light 15h 27m
Length of Day
14h 26m
Waning Gibbous, 72% of the Moon is Illuminated
Jul 22
Waning Gibbous
Jul 24
Last Quarter
Jul 31
New
Aug 7
First Quarter
Aug 15
Full

Hourly Weather History & Observations

Time (EDT) Temp. Dew Point Humidity Pressure Visibility Wind Dir Wind Speed Gust Speed Precip Events Conditions
12:15 AM - - N/A% 29.93 in 10.0 mi WNW 3.5 mph - N/A   Clear
12:35 AM - - N/A% 29.93 in 10.0 mi WNW 4.6 mph - N/A Rain Rain
12:55 AM - - N/A% 29.92 in 10.0 mi Calm Calm - N/A   Scattered Clouds
1:15 AM - - N/A% 29.93 in 10.0 mi Calm Calm - N/A   Clear
1:40 AM - - N/A% 29.92 in 10.0 mi Calm Calm - N/A   Mostly Cloudy
1:55 AM - - N/A% 29.92 in 10.0 mi Calm Calm - N/A   Overcast
2:15 AM - - N/A% 29.93 in 10.0 mi Calm Calm - N/A   Overcast
2:35 AM - - N/A% 29.92 in 10.0 mi Calm Calm - N/A   Overcast
2:55 AM - - N/A% 29.91 in 10.0 mi Calm Calm - N/A   Overcast
3:15 AM - - N/A% 29.90 in 10.0 mi Calm Calm - N/A   Overcast
3:35 AM - - N/A% 29.90 in 10.0 mi Calm Calm - N/A   Overcast
3:55 AM - - N/A% 29.89 in 10.0 mi Calm Calm - N/A   Overcast
4:15 AM - - N/A% 29.89 in 7.0 mi WSW 3.5 mph - N/A   Overcast
4:35 AM - - N/A% 29.90 in 7.0 mi West 5.8 mph - N/A   Overcast
4:55 AM - - N/A% 29.90 in 7.0 mi West 3.5 mph - N/A   Overcast
5:15 AM - - N/A% 29.89 in 7.0 mi West 3.5 mph - N/A   Overcast
5:35 AM - - N/A% 29.89 in 7.0 mi WNW 3.5 mph - N/A   Overcast
5:55 AM - - N/A% 29.90 in 7.0 mi Calm Calm - N/A   Overcast
6:15 AM - - N/A% 29.90 in 5.0 mi Calm Calm - N/A   Haze
6:35 AM - - N/A% 29.91 in 5.0 mi Calm Calm - N/A   Haze
6:55 AM - - N/A% 29.92 in 5.0 mi Calm Calm - N/A   Haze
7:15 AM - - N/A% 29.92 in 4.0 mi Calm Calm - N/A   Haze
7:35 AM - - N/A% 29.93 in 5.0 mi Calm Calm - N/A   Haze
7:55 AM - - N/A% 29.93 in 5.0 mi Calm Calm - N/A   Haze
8:15 AM - - N/A% 29.93 in 7.0 mi North 5.8 mph - N/A   Overcast
8:35 AM - - N/A% 29.94 in 10.0 mi North 5.8 mph - N/A   Overcast
8:55 AM - - N/A% 29.94 in 10.0 mi NNW 5.8 mph - N/A   Overcast
9:15 AM - - N/A% 29.95 in 10.0 mi NNW 4.6 mph - N/A   Overcast
9:35 AM - - N/A% 29.95 in 10.0 mi NNW 5.8 mph - N/A   Overcast
9:55 AM - - N/A% 29.95 in 10.0 mi North 5.8 mph - N/A   Overcast
10:15 AM 75.0 °F 73.9 °F 96% 29.95 in 10.0 mi North 8.1 mph - N/A   Overcast
10:35 AM - - N/A% 29.94 in 10.0 mi North 10.4 mph - N/A   Overcast
10:55 AM - - N/A% 29.95 in 10.0 mi NNW 5.8 mph - N/A   Overcast
11:15 AM 74.8 °F 74.1 °F 98% 29.95 in 10.0 mi North 10.4 mph - N/A   Overcast
11:35 AM 73.0 °F 72.7 °F 99% 29.95 in 3.0 mi NNW 6.9 mph 18.4 mph 0.06 in Rain Rain
11:55 AM 72.9 °F 72.5 °F 99% 29.95 in 10.0 mi North 11.5 mph - 0.07 in   Overcast
12:15 PM 72.9 °F 72.7 °F 99% 29.94 in 10.0 mi NNE 11.5 mph - N/A Rain Light Rain
12:35 PM 73.8 °F 72.3 °F 95% 29.94 in 10.0 mi NNE 11.5 mph - N/A   Scattered Clouds
12:55 PM 75.0 °F 71.6 °F 89% 29.95 in 10.0 mi North 8.1 mph - N/A   Scattered Clouds
1:15 PM 74.7 °F 69.1 °F 83% 29.95 in 10.0 mi North 8.1 mph - N/A   Mostly Cloudy
1:35 PM 74.5 °F 68.5 °F 82% 29.95 in 10.0 mi NNE 8.1 mph - N/A   Scattered Clouds
1:55 PM 74.3 °F 69.1 °F 84% 29.95 in 10.0 mi North 8.1 mph - N/A   Drizzle
2:15 PM 74.3 °F 69.3 °F 84% 29.96 in 10.0 mi North 10.4 mph - N/A   Light Drizzle
2:35 PM 73.4 °F 68.9 °F 86% 29.97 in 10.0 mi North 9.2 mph - N/A Rain Rain
2:55 PM 73.0 °F 70.9 °F 93% 29.97 in 10.0 mi North 8.1 mph - N/A Rain Rain
3:15 PM 73.8 °F 69.3 °F 86% 29.98 in 10.0 mi North 9.2 mph - N/A   Overcast
3:35 PM 74.3 °F 67.8 °F 80% 29.98 in 10.0 mi NNE 8.1 mph - N/A   Mostly Cloudy
3:55 PM 74.3 °F 67.6 °F 80% 29.97 in 10.0 mi North 8.1 mph - N/A   Mostly Cloudy
4:15 PM 74.5 °F 67.6 °F 79% 29.97 in 10.0 mi North 11.5 mph - N/A   Mostly Cloudy
4:35 PM 73.6 °F 67.6 °F 82% 29.97 in 10.0 mi North 9.2 mph - N/A   Scattered Clouds
4:55 PM 72.9 °F 67.5 °F 83% 29.98 in 10.0 mi North 10.4 mph - N/A   Mostly Cloudy
5:15 PM 73.4 °F 67.3 °F 81% 29.98 in 10.0 mi NNE 9.2 mph - N/A   Overcast
5:35 PM 74.5 °F 66.7 °F 77% 29.98 in 10.0 mi NNE 9.2 mph - N/A   Overcast
5:55 PM 74.3 °F 65.8 °F 75% 29.98 in 10.0 mi NNE 6.9 mph - N/A   Overcast
6:15 PM 74.7 °F 65.7 °F 73% 29.98 in 10.0 mi NNE 8.1 mph - N/A   Mostly Cloudy
6:35 PM 74.5 °F 66.0 °F 75% 29.98 in 10.0 mi NNE 6.9 mph - N/A   Mostly Cloudy
6:55 PM 74.5 °F 66.7 °F 77% 29.98 in 10.0 mi North 5.8 mph - N/A   Mostly Cloudy
7:15 PM 74.5 °F 66.4 °F 76% 29.98 in 10.0 mi NNE 5.8 mph - N/A   Mostly Cloudy
7:35 PM 74.3 °F 65.7 °F 74% 29.98 in 10.0 mi North 4.6 mph - N/A   Scattered Clouds
7:55 PM 74.7 °F 65.1 °F 72% 29.99 in 10.0 mi North 9.2 mph 17.3 mph N/A   Scattered Clouds
8:15 PM 75.2 °F 64.8 °F 70% 29.99 in 10.0 mi North 10.4 mph 16.1 mph N/A   Mostly Cloudy
8:35 PM 73.4 °F 62.4 °F 68% 30.00 in 10.0 mi North 9.2 mph - N/A   Scattered Clouds
8:55 PM 71.8 °F 62.1 °F 71% 30.00 in 10.0 mi North 9.2 mph - N/A   Clear
9:15 PM 70.3 °F 62.2 °F 75% 30.01 in 10.0 mi North 8.1 mph - N/A   Clear
9:35 PM 69.8 °F 61.7 °F 75% 30.02 in 10.0 mi North 8.1 mph - N/A   Clear
9:55 PM 67.6 °F 62.8 °F 84% 30.03 in 10.0 mi North 3.5 mph - N/A   Clear
10:15 PM 66.9 °F 63.1 °F 88% 30.03 in 10.0 mi North 4.6 mph - N/A   Clear
10:35 PM 66.6 °F 62.4 °F 86% 30.04 in 10.0 mi North 8.1 mph - N/A   Clear
10:55 PM 66.7 °F 59.0 °F 76% 30.05 in 10.0 mi North 8.1 mph - N/A   Clear
11:15 PM 65.7 °F 58.5 °F 78% 30.05 in 10.0 mi North 6.9 mph - N/A   Clear
11:35 PM 65.3 °F 57.4 °F 76% 30.05 in 10.0 mi North 8.1 mph - N/A   Clear
11:55 PM 64.4 °F 56.8 °F 76% 30.05 in 10.0 mi North 8.1 mph - N/A   Clear